Location: Newark
(39.0622°N, 106.5590°E)
Time: 20:30:41
(UTC+00:00)

Courier 1B - Pass Details

Date: 02 February 2020
Orbit: 962 x 1209 km, 28.3° (Epoch: 19 February)

Event Time Altitude Azimuth Distance (km) Brightness Sun altitude
Rises 19:42:51 0° 259° (W) 3,729 - -49.5°
Reaches altitude 10° 19:45:50 10° 248° (WSW) 2,812 - -49.0°
Maximum altitude 19:51:35 29° 191° (S) 1,839 - -48.0°
Drops below altitude 10° 19:57:38 10° 134° (SE) 2,963 - -46.9°
Exits shadow 19:58:13 - 132° (SE) 3,134 10.4 -46.8°
Sets 20:00:52 0° 124° (SE) 3,963 11.0 -46.3°
